TimeEDT,TemperatureF,Dew PointF,Humidity,Sea Level PressureIn,VisibilityMPH,Wind Direction,Wind SpeedMPH,Gust SpeedMPH,PrecipitationIn,Events,Conditions,WindDirDegrees,DateUTC
12:51 AM,35.6,33.8,93,-9999,50.0,NNW,20.7,-,N/A,,Mostly Cloudy,330,2013-06-19 04:51:00
1:50 AM,33.8,33.8,100,-9999,0.1,NNW,27.6,-,N/A,Fog,Fog,340,2013-06-19 05:50:00
2:51 AM,35.6,35.6,100,-9999,0.1,NNW,23.0,-,N/A,Fog,Fog,340,2013-06-19 06:51:00
3:49 AM,33.8,33.8,100,-9999,0.0,North,21.9,-,N/A,Fog,Fog,350,2013-06-19 07:49:00
4:54 AM,33.8,32.0,93,-9999,45.0,NNW,19.6,-,N/A,,Partly Cloudy,330,2013-06-19 08:54:00
5:53 AM,33.8,33.8,100,-9999,0.1,NNW,16.1,-,N/A,Fog,Fog,340,2013-06-19 09:53:00
6:48 AM,33.8,33.8,100,-9999,0.2,NNW,18.4,-,N/A,Fog,Fog,340,2013-06-19 10:48:00
7:50 AM,33.8,32.0,93,-9999,95.0,NNW,21.9,-,N/A,,Partly Cloudy,340,2013-06-19 11:50:00
8:48 AM,35.6,28.4,75,-9999,95.0,North,24.2,-,N/A,,Mostly Cloudy,350,2013-06-19 12:48:00
9:55 AM,35.6,28.4,75,-9999,2.0,North,20.7,-,N/A,,Mostly Cloudy,350,2013-06-19 13:55:00
10:57 AM,39.2,32.0,75,-9999,60.0,NNW,20.7,-,N/A,,Mostly Cloudy,330,2013-06-19 14:57:00
11:57 AM,37.4,32.0,81,-9999,60.0,North,8.1,-,N/A,,Mostly Cloudy,360,2013-06-19 15:57:00
12:55 PM,37.4,32.0,81,-9999,70.0,NNW,16.1,-,N/A,,Mostly Cloudy,340,2013-06-19 16:55:00
1:54 PM,42.8,30.2,61,-9999,70.0,WNW,13.8,-,N/A,,Mostly Cloudy,300,2013-06-19 17:54:00
2:53 PM,44.6,32.0,61,-9999,70.0,NW,16.1,20.7,N/A,,Scattered Clouds,320,2013-06-19 18:53:00
3:51 PM,44.6,33.8,66,-9999,70.0,NW,19.6,25.3,N/A,,Scattered Clouds,310,2013-06-19 19:51:00
4:51 PM,42.8,32.0,66,-9999,70.0,WNW,19.6,-,N/A,,Partly Cloudy,290,2013-06-19 20:51:00
5:53 PM,42.8,32.0,66,-9999,70.0,WNW,24.2,29.9,N/A,,Partly Cloudy,300,2013-06-19 21:53:00
6:56 PM,41.0,32.0,70,-9999,70.0,NW,15.0,23.0,N/A,,Partly Cloudy,310,2013-06-19 22:56:00
7:53 PM,39.2,33.8,81,-9999,70.0,NW,12.7,-,N/A,,Partly Cloudy,320,2013-06-19 23:53:00
8:53 PM,35.6,33.8,93,-9999,70.0,NW,10.4,-,N/A,,Partly Cloudy,320,2013-06-20 00:53:00
9:57 PM,35.6,32.0,87,-9999,70.0,WNW,10.4,-,N/A,,Partly Cloudy,290,2013-06-20 01:57:00
10:55 PM,37.4,30.2,75,-9999,70.0,WSW,15.0,-,N/A,,Clear,240,2013-06-20 02:55:00
11:55 PM,37.4,30.2,75,-9999,70.0,West,15.0,21.9,N/A,,Clear,260,2013-06-20 03:55:00